Le nostre stazioni meteo in Italia

Pubblicità
Il mio iltempo24.it
Roma/Ciampino, Italia (16239): Temperatura & dewpoint: 02.07.2020 11:00:00 - 08.07.2020 11:00:00 (CEST)Roma/Ciampino, Italia (16239): velocità del vento: 02.07.2020 11:00:00 - 08.07.2020 11:00:00 (CEST)Roma/Ciampino, Italia (16239): direzione del vento: 02.07.2020 11:00:00 - 08.07.2020 11:00:00 (CEST)Roma/Ciampino, Italia (16239): reduced air pressure: 02.07.2020 11:00:00 - 08.07.2020 11:00:00 (CEST)Roma/Ciampino, Italia (16239): visibility: 02.07.2020 11:00:00 - 08.07.2020 11:00:00 (CEST)Roma/Ciampino, Italia (16239): precipitazioni: 02.07.2020 11:00:00 - 08.07.2020 11:00:00 (CEST)
Data & Tempo tt [°C] td [°C] ff [km/h] ff [kn] dd ppp [hPa] vv [km] rr [mm]
08.07.2020 11:00:00 28,5 16,2 5 3 - 1015,8 10 0,0
08.07.2020 10:00:00 26,0 16,0 5 3 - - 10 -
08.07.2020 09:00:00 24,0 14,0 8 4 NNE - 10 -
08.07.2020 08:00:00 22,0 13,3 9 5 NNE 1015,1 10 -
08.07.2020 07:00:00 21,0 13,0 9 5 NE - 10 -
08.07.2020 06:00:00 21,0 13,0 8 4 NE - 10 -
08.07.2020 05:00:00 21,0 13,7 5 3 NE 1014,2 - 0,0
08.07.2020 04:00:00 21,0 14,0 8 4 NE - 10 -
08.07.2020 03:00:00 22,0 15,0 11 6 NE - 10 -
08.07.2020 02:00:00 22,3 14,8 8 4 NE 1013,8 10 -
08.07.2020 01:00:00 24,0 15,0 9 5 NNE - 10 -
08.07.2020 00:00:00 24,0 15,0 4 2 - - 10 -
07.07.2020 23:00:00 24,6 15,2 2 1 - 1013,1 10 0,0
07.07.2020 22:00:00 26,0 15,0 4 2 SO - 10 -
07.07.2020 21:00:00 27,0 16,0 8 4 OSO - 10 -
07.07.2020 20:00:00 28,0 15,6 11 6 SO 1011,7 10 -
07.07.2020 19:00:00 29,0 16,0 15 8 OSO - 10 -
07.07.2020 18:00:00 30,0 16,0 16 9 OSO - 10 -
07.07.2020 17:00:00 30,7 16,3 21 11 SO 1011,1 10 0,0
07.07.2020 16:00:00 32,0 16,0 21 11 SSO - 10 -
07.07.2020 15:00:00 32,0 17,0 21 11 SSO - 10 -
07.07.2020 14:00:00 32,1 19,0 11 6 SSO 1010,3 10 -
07.07.2020 13:00:00 32,0 16,0 13 7 OSO - 10 -
07.07.2020 12:00:00 30,0 15,0 8 4 - - 10 -
07.07.2020 11:00:00 29,8 15,0 5 3 - 1009,7 10 0,0
07.07.2020 10:00:00 28,0 14,0 5 3 NO - 10 -
07.07.2020 09:00:00 26,0 14,0 11 6 NE - 10 -
07.07.2020 08:00:00 24,1 15,0 8 4 NE 1008,0 10 -
07.07.2020 07:00:00 21,0 17,0 4 2 N - 10 -
07.07.2020 06:00:00 21,0 19,0 2 1 E - 10 -
07.07.2020 05:00:00 21,1 19,0 4 2 - 1007,3 10 0,0
07.07.2020 04:00:00 22,0 14,0 4 2 SSO - 10 -
07.07.2020 03:00:00 22,0 16,0 2 1 - - 10 -
07.07.2020 02:00:00 23,2 16,1 4 2 S 1007,6 30 -
07.07.2020 01:00:00 23,0 16,0 8 4 SSO - 10 -
07.07.2020 00:00:00 24,0 14,0 5 3 OSO - 10 -
06.07.2020 23:00:00 25,5 13,3 8 4 SSO 1007,9 10 0,0
06.07.2020 22:00:00 26,0 14,0 5 3 SSO - 10 -
06.07.2020 21:00:00 27,0 13,0 8 4 SO - 10 -
06.07.2020 20:00:00 28,0 13,0 13 7 O 1007,5 10 -
06.07.2020 19:00:00 29,0 14,0 16 9 O - 10 -
06.07.2020 18:00:00 30,0 15,0 16 9 O - 10 -
06.07.2020 17:00:00 30,7 14,1 18 10 O 1007,9 10 0,0
06.07.2020 16:00:00 31,0 14,0 15 8 SO - 10 -
06.07.2020 15:00:00 31,0 15,0 16 9 OSO - 10 -
06.07.2020 14:00:00 31,2 15,6 15 8 OSO 1008,6 10 -
06.07.2020 13:00:00 31,0 14,0 5 3 SE - 10 -
06.07.2020 12:00:00 30,0 15,0 5 3 - - 10 -
06.07.2020 11:00:00 28,3 14,9 8 4 NNE 1010,1 10 0,0
06.07.2020 10:00:00 27,0 15,0 11 6 NE - 10 -
06.07.2020 09:00:00 24,0 14,0 11 6 NNE - 10 -
06.07.2020 08:00:00 22,3 14,2 13 7 NE 1010,3 10 -
06.07.2020 07:00:00 21,0 14,0 9 5 ENE - 10 -
06.07.2020 06:00:00 20,0 15,0 8 4 NE - 10 -
06.07.2020 05:00:00 20,3 14,5 5 3 NE 1010,5 10 0,0
06.07.2020 04:00:00 21,0 14,0 4 2 NNE - 10 -
06.07.2020 03:00:00 21,0 14,0 4 2 N - 10 -
06.07.2020 02:00:00 22,8 12,6 4 2 - 1011,7 10 -
06.07.2020 01:00:00 23,0 12,0 5 3 NE - 10 -
06.07.2020 00:00:00 24,0 11,0 9 5 N - 10 -
05.07.2020 23:00:00 26,0 11,3 5 3 - 1012,3 10 0,0
05.07.2020 22:00:00 26,0 18,0 5 3 SO - 10 -
05.07.2020 21:00:00 28,0 17,0 9 5 SSO - 10 -
05.07.2020 20:00:00 28,8 16,4 11 6 SO 1011,3 10 -
05.07.2020 19:00:00 30,0 15,0 15 8 O - 10 -
05.07.2020 18:00:00 30,0 15,0 16 9 O - 10 -
05.07.2020 17:00:00 30,1 13,6 18 10 OSO 1013,0 10 0,0
05.07.2020 16:00:00 31,0 13,0 11 6 - - 10 -
05.07.2020 15:00:00 31,0 12,0 8 4 NO - 10 -
05.07.2020 14:00:00 31,1 11,2 11 6 O 1013,8 10 -
05.07.2020 13:00:00 30,0 12,0 8 4 NO - 10 -
05.07.2020 12:00:00 28,0 13,0 8 4 - - 10 -
05.07.2020 11:00:00 27,4 12,9 9 5 NNE 1014,7 10 0,0
05.07.2020 10:00:00 25,0 14,0 13 7 NE - 10 -
05.07.2020 09:00:00 22,0 13,0 16 9 NNE - 10 -
05.07.2020 08:00:00 20,8 14,9 15 8 NE 1014,6 10 -
05.07.2020 07:00:00 19,0 13,0 15 8 NE - 10 -
05.07.2020 06:00:00 - - - - - - - -
05.07.2020 05:00:00 18,9 14,8 11 6 NE 1014,4 10 0,0
05.07.2020 04:00:00 19,0 16,0 5 3 NE - 10 -
05.07.2020 03:00:00 19,0 17,0 4 2 NNE - 10 -
05.07.2020 02:00:00 20,2 16,9 8 4 NNE 1015,1 10 -
05.07.2020 01:00:00 21,0 17,0 5 3 NNE - 10 -
05.07.2020 00:00:00 22,0 17,0 5 3 E - 10 -
04.07.2020 23:00:00 21,8 16,4 5 3 N 1015,4 20 0,0
04.07.2020 22:00:00 - - - - - - - -
04.07.2020 21:00:00 - - - - - - - -
04.07.2020 20:00:00 24,7 15,5 11 6 NE 1014,4 - -
04.07.2020 19:00:00 - - - - - - - -
04.07.2020 18:00:00 - - - - - - - -
04.07.2020 17:00:00 26,5 17,0 8 4 - 1014,5 10 0,0
04.07.2020 16:00:00 25,0 20,0 15 8 NNE - 10 -
04.07.2020 15:00:00 22,0 17,0 4 2 - - 10 -
04.07.2020 14:00:00 19,6 14,1 15 8 E 1015,6 10 -
04.07.2020 13:00:00 20,0 16,0 34 18 SSO - 5 -
04.07.2020 12:00:00 29,0 17,0 13 7 S - 10 -
04.07.2020 11:00:00 27,9 17,1 18 10 SSO 1014,3 10 0,0
04.07.2020 10:00:00 26,0 19,0 5 3 - - 10 -
04.07.2020 09:00:00 24,0 21,0 5 3 SSO - 10 -
04.07.2020 08:00:00 23,9 20,3 8 4 SSE 1013,8 8 -
04.07.2020 07:00:00 22,0 21,0 8 4 S - 10 -
04.07.2020 06:00:00 22,0 19,0 4 2 - - 10 -
04.07.2020 05:00:00 22,6 20,3 8 4 S 1012,5 10 0,0
04.07.2020 04:00:00 23,0 21,0 9 5 SE - 10 -
04.07.2020 03:00:00 23,0 21,0 11 6 SSO - 10 -
04.07.2020 02:00:00 23,4 21,7 9 5 SO 1013,1 10 -
04.07.2020 01:00:00 24,0 22,0 11 6 SSO - 10 -
04.07.2020 00:00:00 25,0 22,0 11 6 S - 10 -
03.07.2020 23:00:00 24,6 21,9 11 6 S 1013,2 10 0,0
03.07.2020 22:00:00 25,0 22,0 9 5 SSO - 10 -
03.07.2020 21:00:00 26,0 20,0 11 6 OSO - 10 -
03.07.2020 20:00:00 27,3 20,7 15 8 SO 1011,7 10 -
03.07.2020 19:00:00 29,0 20,0 11 6 OSO - 10 -
03.07.2020 18:00:00 29,0 20,0 15 8 SO - 10 -
03.07.2020 17:00:00 29,3 20,2 16 9 SO 1011,1 10 0,0
03.07.2020 16:00:00 29,0 20,0 18 10 OSO - 10 -
03.07.2020 15:00:00 30,0 20,0 18 10 SO - 10 -
03.07.2020 14:00:00 30,4 20,6 16 9 SO 1011,7 10 -
03.07.2020 13:00:00 30,0 21,0 16 9 SO - 10 -
03.07.2020 12:00:00 30,0 18,0 8 4 - - 10 -
03.07.2020 11:00:00 29,0 19,9 4 2 - 1011,5 10 0,0
03.07.2020 10:00:00 27,0 20,0 8 4 - - 10 -
03.07.2020 09:00:00 25,0 21,0 5 3 O - 10 -
03.07.2020 08:00:00 24,5 20,6 4 2 - 1011,6 10 -
03.07.2020 07:00:00 23,0 17,0 4 2 - - 10 -
03.07.2020 06:00:00 22,0 19,0 4 2 - - 10 -
03.07.2020 05:00:00 22,6 19,4 4 2 ESE 1011,2 10 0,0
03.07.2020 04:00:00 23,0 22,0 2 1 - - 10 -
03.07.2020 03:00:00 23,0 22,0 5 3 SSO - 10 -
03.07.2020 02:00:00 23,0 21,9 4 2 SO 1011,5 10 -
03.07.2020 01:00:00 23,0 22,0 5 3 OSO - 10 -
03.07.2020 00:00:00 24,0 22,0 2 1 - - 10 -
02.07.2020 23:00:00 23,8 20,2 8 4 OSO 1011,7 10 0,0
02.07.2020 22:00:00 25,0 20,0 5 3 OSO - 10 -
02.07.2020 21:00:00 27,0 19,0 8 4 O - 10 -
02.07.2020 20:00:00 28,0 18,1 8 4 OSO 1011,1 10 -
02.07.2020 19:00:00 29,0 18,0 15 8 O - 10 -
02.07.2020 18:00:00 31,0 17,0 13 7 OSO - 10 -
02.07.2020 17:00:00 31,2 16,0 15 8 OSO 1010,9 10 0,0
02.07.2020 16:00:00 32,0 16,0 15 8 SO - 10 -
02.07.2020 15:00:00 32,0 16,0 16 9 OSO - 10 -
02.07.2020 14:00:00 32,5 16,3 16 9 SO 1011,9 10 -
02.07.2020 13:00:00 32,0 17,0 13 7 SSO - 10 -
02.07.2020 12:00:00 31,0 15,0 9 5 - - 10 -
02.07.2020 11:00:00 30,2 15,2 9 5 S 1012,0 10 0,0

tt = Temperatura
td = dewpoint
ff = velocità del vento
dd = direzione del vento
ppp = reduced air pressure
vv = visibility
rr = precipitazioni

Stazioni seguenti

WeatherPro
AMSI
MeteoEarth